EN

Hourly Weather Borowki

Today, 20 April, Tuesday

Time Temperature Precipitation Wind Pressure Humidity
00:00 +8°C° 0 mm 1 mps 751 mmHg 71%
01:00 +8°C° 0 mm 1 mps 751 mmHg 74%
02:00 +8°C° 0 mm 1 mps 751 mmHg 75%
03:00 +8°C° 0 mm 1 mps 751 mmHg 76%
04:00 +8°C° 0 mm 1 mps 750 mmHg 77%
05:00 +9°C° 0 mm 1 mps 750 mmHg 76%
06:00 +10°C° 0 mm 1 mps 750 mmHg 75%
07:00 +10°C° 0 mm 1 mps 751 mmHg 74%
08:00 +12°C° 0.1 mm 1 mps 750 mmHg 68%
09:00 +13°C° 0.1 mm 1 mps 750 mmHg 62%
10:00 +15°C° 0.1 mm 1 mps 750 mmHg 57%
11:00 +15°C° 0.2 mm 1 mps 750 mmHg 53%
12:00 +16°C° 0.2 mm 1 mps 749 mmHg 49%
13:00 +16°C° 0.2 mm 1 mps 749 mmHg 45%
14:00 +16°C° 0.1 mm 1 mps 749 mmHg 46%
15:00 +16°C° 0.1 mm 2 mps 748 mmHg 47%
16:00 +16°C° 0.1 mm 2 mps 748 mmHg 47%
17:00 +15°C° 0.1 mm 2 mps 748 mmHg 54%
18:00 +13°C° 0.1 mm 2 mps 748 mmHg 61%
19:00 +12°C° 0.1 mm 2 mps 748 mmHg 69%
20:00 +10°C° 0 mm 2 mps 748 mmHg 72%
21:00 +9°C° 0 mm 2 mps 748 mmHg 76%
22:00 +9°C° 0 mm 2 mps 748 mmHg 79%
23:00 +8°C° 0 mm 2 mps 748 mmHg 80%

Tomorrow, 21 April, Wednesday

Time Temperature Precipitation Wind Pressure Humidity
00:00 +9°C° 0 mm 1 mps 748 mmHg 81%
01:00 +8°C° 0 mm 1 mps 747 mmHg 82%
02:00 +8°C° 0 mm 1 mps 747 mmHg 81%
03:00 +8°C° 0 mm 1 mps 747 mmHg 81%
04:00 +8°C° 0 mm 1 mps 747 mmHg 80%
05:00 +9°C° 0 mm 1 mps 747 mmHg 78%
06:00 +9°C° 0 mm 1 mps 747 mmHg 75%
07:00 +10°C° 0 mm 1 mps 747 mmHg 73%
08:00 +12°C° 0 mm 2 mps 747 mmHg 64%
09:00 +13°C° 0 mm 2 mps 747 mmHg 56%
10:00 +15°C° 0 mm 2 mps 747 mmHg 47%
11:00 +14°C° 0 mm 3 mps 746 mmHg 44%
12:00 +16°C° 0 mm 3 mps 746 mmHg 41%
13:00 +16°C° 0 mm 3 mps 746 mmHg 38%
14:00 +15°C° 0 mm 4 mps 746 mmHg 40%
15:00 +15°C° 0 mm 4 mps 745 mmHg 42%
16:00 +14°C° 0 mm 4 mps 745 mmHg 44%
17:00 +13°C° 0.1 mm 4 mps 745 mmHg 54%
18:00 +10°C° 0.1 mm 5 mps 745 mmHg 64%
19:00 +8°C° 0.1 mm 5 mps 746 mmHg 73%
20:00 +7°C° 0.1 mm 4 mps 746 mmHg 74%
21:00 +6°C° 0.1 mm 4 mps 746 mmHg 75%
22:00 +5°C° 0.1 mm 4 mps 746 mmHg 76%
23:00 +4°C° 0 mm 4 mps 746 mmHg 77%

Day after tomorrow, 22 April, Thursday

Time Temperature Precipitation Wind Pressure Humidity
00:00 +4°C° 0 mm 4 mps 746 mmHg 77%
01:00 +2°C° 0 mm 5 mps 746 mmHg 77%
02:00 +1°C° 0 mm 5 mps 746 mmHg 79%
03:00 +1°C° 0 mm 5 mps 746 mmHg 81%
04:00 0°C° 0 mm 5 mps 746 mmHg 82%
05:00 -1°C° 0 mm 6 mps 746 mmHg 80%
06:00 -1°C° 0 mm 6 mps 746 mmHg 78%
07:00 +1°C° 0 mm 6 mps 746 mmHg 76%
08:00 +1°C° 0 mm 6 mps 746 mmHg 74%
09:00 +2°C° 0 mm 7 mps 746 mmHg 72%
10:00 +3°C° 0 mm 7 mps 747 mmHg 70%
11:00 +3°C° 0.2 mm 7 mps 747 mmHg 75%
12:00 +3°C° 0.2 mm 7 mps 747 mmHg 80%
13:00 +3°C° 0.2 mm 6 mps 747 mmHg 85%
14:00 +4°C° 0.2 mm 7 mps 747 mmHg 74%
15:00 +4°C° 0.2 mm 7 mps 747 mmHg 63%
16:00 +5°C° 0.2 mm 7 mps 747 mmHg 52%
17:00 +4°C° 0 mm 7 mps 747 mmHg 54%
18:00 +3°C° 0 mm 6 mps 748 mmHg 57%
19:00 +2°C° 0 mm 6 mps 748 mmHg 59%
20:00 +2°C° 0 mm 6 mps 748 mmHg 62%
21:00 +1°C° 0 mm 6 mps 748 mmHg 66%
22:00 +1°C° 0 mm 5 mps 748 mmHg 70%
23:00 +1°C° 0 mm 5 mps 748 mmHg 75%

23 April, Friday

Time Temperature Precipitation Wind Pressure Humidity
00:00 0°C° 0 mm 5 mps 748 mmHg 81%
01:00 0°C° 0 mm 5 mps 748 mmHg 87%
02:00 0°C° 0.1 mm 5 mps 748 mmHg 86%
03:00 +1°C° 0.1 mm 5 mps 749 mmHg 86%
04:00 +1°C° 0.1 mm 5 mps 749 mmHg 85%
05:00 +1°C° 0.1 mm 5 mps 749 mmHg 84%
06:00 +1°C° 0.1 mm 6 mps 750 mmHg 82%
07:00 +2°C° 0.1 mm 6 mps 750 mmHg 81%
08:00 +3°C° 0.1 mm 7 mps 751 mmHg 71%
09:00 +4°C° 0.1 mm 7 mps 751 mmHg 62%
10:00 +5°C° 0.1 mm 8 mps 752 mmHg 52%
11:00 +5°C° 0 mm 8 mps 752 mmHg 45%
12:00 +6°C° 0 mm 8 mps 752 mmHg 38%
13:00 +7°C° 0 mm 9 mps 753 mmHg 31%
14:00 +6°C° 0 mm 8 mps 753 mmHg 33%
15:00 +6°C° 0 mm 7 mps 753 mmHg 35%
16:00 +6°C° 0 mm 7 mps 754 mmHg 37%
17:00 +6°C° 0 mm 5 mps 754 mmHg 42%
18:00 +4°C° 0 mm 4 mps 754 mmHg 47%
19:00 +3°C° 0 mm 3 mps 754 mmHg 52%
20:00 +4°C° 0 mm 2 mps 754 mmHg 51%
21:00 +4°C° 0 mm 2 mps 754 mmHg 50%
22:00 +4°C° 0 mm 2 mps 754 mmHg 49%
23:00 +4°C° 0 mm 2 mps 754 mmHg 54%

24 April, Saturday

Time Temperature Precipitation Wind Pressure Humidity
00:00 +2°C° 0 mm 3 mps 754 mmHg 59%
01:00 +2°C° 0 mm 3 mps 754 mmHg 65%
02:00 +2°C° 0 mm 3 mps 753 mmHg 73%
03:00 +1°C° 0 mm 3 mps 753 mmHg 81%
04:00 +1°C° 0 mm 2 mps 753 mmHg 90%
05:00 +1°C° 0 mm 3 mps 753 mmHg 86%
06:00 +3°C° 0 mm 3 mps 753 mmHg 81%
07:00 +4°C° 0 mm 3 mps 753 mmHg 77%
08:00 +4°C° 0.2 mm 3 mps 753 mmHg 77%
09:00 +5°C° 0.2 mm 4 mps 753 mmHg 77%
10:00 +6°C° 0.2 mm 4 mps 753 mmHg 76%
11:00 +6°C° 0.3 mm 5 mps 753 mmHg 69%
12:00 +7°C° 0.3 mm 5 mps 753 mmHg 61%
13:00 +8°C° 0.3 mm 6 mps 753 mmHg 53%
14:00 +8°C° 0.1 mm 6 mps 753 mmHg 50%
15:00 +8°C° 0.1 mm 6 mps 753 mmHg 47%
16:00 +8°C° 0.1 mm 6 mps 753 mmHg 44%
17:00 +6°C° 0 mm 5 mps 754 mmHg 45%
18:00 +5°C° 0 mm 4 mps 754 mmHg 45%
19:00 +3°C° 0 mm 3 mps 754 mmHg 46%
20:00 +2°C° 0 mm 3 mps 755 mmHg 50%
21:00 +1°C° 0 mm 3 mps 755 mmHg 53%
22:00 0°C° 0 mm 3 mps 755 mmHg 57%
23:00 0°C° 0 mm 3 mps 755 mmHg 62%

25 April, Sunday

Time Temperature Precipitation Wind Pressure Humidity
00:00 0°C° 0 mm 3 mps 755 mmHg 67%
01:00 -1°C° 0 mm 3 mps 755 mmHg 73%
02:00 -1°C° 0 mm 3 mps 755 mmHg 73%
03:00 -1°C° 0 mm 3 mps 756 mmHg 74%
04:00 -1°C° 0 mm 3 mps 756 mmHg 74%
05:00 -1°C° 0 mm 4 mps 756 mmHg 69%
06:00 +1°C° 0 mm 5 mps 756 mmHg 64%
07:00 +2°C° 0 mm 5 mps 756 mmHg 59%
08:00 +5°C° 0 mm 5 mps 757 mmHg 52%
09:00 +6°C° 0 mm 5 mps 757 mmHg 45%
10:00 +7°C° 0 mm 6 mps 757 mmHg 38%
11:00 +8°C° 0 mm 6 mps 757 mmHg 36%
12:00 +8°C° 0 mm 6 mps 757 mmHg 35%
13:00 +9°C° 0 mm 6 mps 757 mmHg 34%
14:00 +8°C° 0 mm 6 mps 757 mmHg 34%
15:00 +8°C° 0 mm 6 mps 757 mmHg 35%
16:00 +7°C° 0 mm 6 mps 757 mmHg 35%
17:00 +6°C° 0 mm 5 mps 757 mmHg 40%
18:00 +4°C° 0 mm 4 mps 757 mmHg 45%
19:00 +3°C° 0 mm 3 mps 758 mmHg 51%
20:00 +3°C° 0 mm 2 mps 758 mmHg 53%
21:00 +2°C° 0 mm 2 mps 758 mmHg 56%
22:00 +2°C° 0 mm 2 mps 758 mmHg 59%
23:00 +1°C° 0 mm 2 mps 758 mmHg 63%
Show more

We Need Your Consent

Meteoprog and our Service Providers may store and access personal data such as cookies, device identifiers or other similar technologies on your device and process such data to personalise content and ads, as well as provide social media features and to analyse the traffic.

  • Store and/or access information on your device

    Cookies, device identifiers or other information can be stored or accessed on your device for the purposes indicated above.

  • Personalised ads and content, ad and content measurement, audience insights, and products development

    Ads and content can be personalised based on a profile. More data can be added to better personalise ads and content. Ad and content performance can be measured. Insights about the audience who saw the ads and content can be derived. Such data can be used to develop or improve user’s experience, systems and software.

By clicking ‘I Agree’ you will allow the use of indicated cookies, device identifiers, web beacons or other similar technologies. Your settings can be changed in the browser on your device.

For certain purposes, legitimate interests may be relied on, rather than consent. You can read more about this in our Privacy and Cookie Policy.